Regional Weather Roundup
Issued by NWS Midland/Odessa, TX

Skip options and go directly to product.
Home | Oldest Version | Previous Version | Current Version | All | Text Only | Save Text | Print | Product List | Glossary Off

Skip product version selection by date and time.   

188
ASUS44 KMAF 241510
RWRMAF
MIDLAND AREA WEATHER ROUNDUP
NATIONAL WEATHER SERVICE MIDLAND TX
1000 AM CDT FRI OCT 24 2014

...IN SOUTHWEST TEXAS AND SOUTHEAST NEW MEXICO...

CITY           SKY/WX    TMP DP  RH WIND       PRES   REMARKS
ALPINE         SUNNY     67  57  69 SW3       30.34R
ANDREWS        FAIR      65  59  83 SW5       30.21R
ARTESIA        NOT AVBL
BIG SPRING     CLOUDY    63  62  94 S6        30.22R
CARLSBAD       SUNNY     63  55  75 CALM      30.20R
DRYDEN           N/A     65  64  97 SW8       30.19R
FORT STOCKTON  SUNNY     70  58  65 SW12      30.20R
GUAD PASS      SUNNY     59  48  67 W12       30.33R
HOBBS          SUNNY     57  57 100 S3        30.23R
MARFA          SUNNY     61  57  88 CALM      30.34R
MIDLAND AIRPK  SUNNY     67  61  81 S5        30.20S
MIDLAND INTL   SUNNY     65  60  84 S8        30.19R
ODESSA         SUNNY     66  61  84 S7        30.21R
PECOS          FOG       57  56  97 CALM      30.20R VSB 1/4
PRESIDIO       FAIR      68  58  70 CALM      30.23R
SEMINOLE       SUNNY     63  60  90 SW7       30.22R
SNYDER         FOG       59  59  99 SW5       30.19R VSB<1/4
WINK           CLOUDY    60 N/A N/A SE3       30.19R
$$
...OTHER STATIONS IN TEXAS...

CITY           SKY/WX    TMP DP  RH WIND       PRES   REMARKS
ABILENE        SUNNY     68  61  78 SW6       30.17R
AMARILLO       SUNNY     59  54  83 SW7       30.17R
AUSTIN         MOSUNNY   66  58  75 CALM      30.19R
BROWNSVILLE    SUNNY     78  68  71 N8        30.14R
CORPUS CHRISTI SUNNY     73  66  78 N6        30.15R
DALLAS FTW     MOSUNNY   67  55  65 S9        30.17R
DEL RIO        SUNNY     68  60  75 SE7       30.17R
EL PASO        SUNNY     62  51  67 N5        30.26R
HOUSTON INT    SUNNY     64  53  67 NE5       30.18R
LUBBOCK        SUNNY     63  57  81 SW9       30.19R
SAN ANGELO     SUNNY     66  60  81 S7        30.19R
SAN ANTONIO    SUNNY     72  60  66 CALM      30.19R
WACO           SUNNY     68  55  63 S8        30.18R
WICHITA FALLS  NOT AVBL
$$
...OTHER LOCATIONS IN NEW MEXICO...

CITY           SKY/WX    TMP DP  RH WIND       PRES   REMARKS
ALAMAGORDO     NOT AVBL
ALBUQUERQUE    MOSUNNY   51  36  56 NW3       30.35R
CANNON AFB     SUNNY     58  49  72 W8        30.22R
CLOVIS         SUNNY     61  48  63 W10       30.23R
HOLLOMAN AFB   SUNNY     56  47  72 SE3       30.26R
ROSWELL        SUNNY     57  50  77 NE3       30.21R
RUIDOSO        SUNNY     54  36  50 W10       30.38R
SANTA FE       SUNNY     51  31  46 N14       30.36R
TRUTH OR CONSE SUNNY     60  45  57 N3        30.30R
TUCUMCARI      SUNNY     58  40  51 W9        30.20R
$$

USA.gov is the U.S. government's official web portal to all federal, state and local government web resources and services.